• în Republica Moldova
  • Lista ţărilor
  • Pe 7 zile
  • Temperatura apei
  • Hartă satelitară
  • Meteo pe hartă
  • Widget-uri
  • user-avatar
    Intrare

    Meteo pe oră la Lilyugino

    Astăzi, 18 Ianuarie, Vineri

    Timp Temperatura Precipitaţii Vânt Presiune Umiditate
    00:00 -2°C° 0.1 mm 6 m/s 724 mmHg 88%
    01:00 -2°C° 0.1 mm 6 m/s 725 mmHg 87%
    02:00 -2°C° 0.1 mm 6 m/s 725 mmHg 86%
    03:00 -2°C° 0.2 mm 6 m/s 726 mmHg 87%
    04:00 -2°C° 0.2 mm 6 m/s 726 mmHg 87%
    05:00 -2°C° 0.2 mm 6 m/s 727 mmHg 88%
    06:00 -1°C° 0.2 mm 5 m/s 727 mmHg 89%
    07:00 -2°C° 0.2 mm 5 m/s 728 mmHg 89%
    08:00 -2°C° 0.2 mm 4 m/s 728 mmHg 90%
    09:00 -2°C° 0.2 mm 4 m/s 729 mmHg 90%
    10:00 -2°C° 0.2 mm 4 m/s 729 mmHg 91%
    11:00 -2°C° 0.2 mm 4 m/s 730 mmHg 91%
    12:00 -1°C° 0.3 mm 3 m/s 730 mmHg 92%
    13:00 -1°C° 0.3 mm 3 m/s 730 mmHg 93%
    14:00 -2°C° 0.3 mm 2 m/s 730 mmHg 94%
    15:00 -2°C° 0.7 mm 2 m/s 729 mmHg 95%
    16:00 -3°C° 0.7 mm 2 m/s 729 mmHg 96%
    17:00 -3°C° 0.7 mm 2 m/s 729 mmHg 97%
    18:00 -6°C° 1.3 mm 3 m/s 729 mmHg 96%
    19:00 -7°C° 1.3 mm 3 m/s 729 mmHg 95%
    20:00 -9°C° 1.3 mm 4 m/s 729 mmHg 93%
    21:00 -9°C° 0.2 mm 4 m/s 729 mmHg 93%
    22:00 -9°C° 0.2 mm 3 m/s 730 mmHg 92%
    23:00 -9°C° 0.2 mm 3 m/s 731 mmHg 92%

    Mâine, 19 Ianuarie, Sâmbătă

    Timp Temperatura Precipitaţii Vânt Presiune Umiditate
    00:00 -10°C° 0 mm 3 m/s 731 mmHg 92%
    01:00 -12°C° 0 mm 3 m/s 732 mmHg 93%
    02:00 -13°C° 0 mm 3 m/s 733 mmHg 94%
    03:00 -12°C° 0 mm 3 m/s 733 mmHg 94%
    04:00 -12°C° 0 mm 4 m/s 734 mmHg 94%
    05:00 -12°C° 0 mm 4 m/s 734 mmHg 95%
    06:00 -11°C° 0 mm 4 m/s 734 mmHg 94%
    07:00 -11°C° 0 mm 4 m/s 735 mmHg 92%
    08:00 -11°C° 0 mm 4 m/s 735 mmHg 91%
    09:00 -10°C° 0 mm 4 m/s 735 mmHg 91%
    10:00 -10°C° 0 mm 5 m/s 736 mmHg 90%
    11:00 -10°C° 0 mm 5 m/s 736 mmHg 89%
    12:00 -10°C° 0.1 mm 5 m/s 736 mmHg 89%
    13:00 -8°C° 0.1 mm 5 m/s 736 mmHg 89%
    14:00 -8°C° 0.1 mm 5 m/s 736 mmHg 89%
    15:00 -8°C° 0.1 mm 5 m/s 737 mmHg 89%
    16:00 -8°C° 0.1 mm 4 m/s 737 mmHg 89%
    17:00 -9°C° 0.1 mm 4 m/s 738 mmHg 89%
    18:00 -8°C° 0 mm 4 m/s 738 mmHg 89%
    19:00 -8°C° 0 mm 4 m/s 738 mmHg 90%
    20:00 -8°C° 0 mm 4 m/s 739 mmHg 91%
    21:00 -8°C° 0 mm 4 m/s 739 mmHg 91%
    22:00 -8°C° 0 mm 4 m/s 739 mmHg 90%
    23:00 -8°C° 0 mm 4 m/s 739 mmHg 90%

    Poimâine, 20 Ianuarie, Duminică

    Timp Temperatura Precipitaţii Vânt Presiune Umiditate
    00:00 -8°C° 0 mm 4 m/s 739 mmHg 90%
    01:00 -9°C° 0 mm 4 m/s 739 mmHg 91%
    02:00 -9°C° 0 mm 4 m/s 740 mmHg 91%
    03:00 -11°C° 0 mm 5 m/s 739 mmHg 91%
    04:00 -11°C° 0 mm 5 m/s 739 mmHg 91%
    05:00 -11°C° 0 mm 5 m/s 738 mmHg 92%
    06:00 -10°C° 0.2 mm 5 m/s 738 mmHg 91%
    07:00 -9°C° 0.2 mm 6 m/s 738 mmHg 90%
    08:00 -8°C° 0.2 mm 6 m/s 738 mmHg 89%
    09:00 -6°C° 0.1 mm 6 m/s 737 mmHg 88%
    10:00 -6°C° 0.1 mm 6 m/s 737 mmHg 87%
    11:00 -6°C° 0.1 mm 7 m/s 737 mmHg 86%
    12:00 -5°C° 0.5 mm 6 m/s 737 mmHg 88%
    13:00 -5°C° 0.5 mm 5 m/s 737 mmHg 90%
    14:00 -4°C° 0.5 mm 4 m/s 736 mmHg 92%
    15:00 -5°C° 0.5 mm 4 m/s 736 mmHg 92%
    16:00 -6°C° 0.5 mm 3 m/s 736 mmHg 93%
    17:00 -6°C° 0.5 mm 2 m/s 736 mmHg 94%
    18:00 -7°C° 0.1 mm 2 m/s 737 mmHg 94%
    19:00 -7°C° 0.1 mm 2 m/s 737 mmHg 94%
    20:00 -8°C° 0.1 mm 2 m/s 737 mmHg 94%
    21:00 -8°C° 0 mm 2 m/s 737 mmHg 94%
    22:00 -8°C° 0 mm 2 m/s 737 mmHg 95%
    23:00 -9°C° 0 mm 2 m/s 738 mmHg 95%

    21 Ianuarie, Luni

    Timp Temperatura Precipitaţii Vânt Presiune Umiditate
    00:00 -10°C° 0 mm 2 m/s 738 mmHg 96%
    01:00 -12°C° 0 mm 2 m/s 738 mmHg 96%
    02:00 -12°C° 0 mm 2 m/s 738 mmHg 97%
    03:00 -13°C° 0 mm 2 m/s 738 mmHg 97%
    04:00 -14°C° 0 mm 2 m/s 737 mmHg 97%
    05:00 -15°C° 0 mm 2 m/s 737 mmHg 97%
    06:00 -15°C° 0 mm 2 m/s 737 mmHg 97%
    07:00 -15°C° 0 mm 2 m/s 738 mmHg 97%
    08:00 -16°C° 0 mm 2 m/s 738 mmHg 97%
    09:00 -15°C° 0 mm 2 m/s 738 mmHg 96%
    10:00 -14°C° 0 mm 2 m/s 738 mmHg 95%
    11:00 -14°C° 0 mm 3 m/s 739 mmHg 94%
    12:00 -14°C° 0 mm 3 m/s 739 mmHg 92%
    13:00 -13°C° 0 mm 3 m/s 739 mmHg 89%
    14:00 -13°C° 0 mm 3 m/s 739 mmHg 87%
    15:00 -14°C° 0 mm 3 m/s 739 mmHg 89%
    16:00 -15°C° 0 mm 3 m/s 740 mmHg 90%
    17:00 -14°C° 0 mm 2 m/s 740 mmHg 92%
    18:00 -15°C° 0 mm 2 m/s 740 mmHg 93%
    19:00 -16°C° 0 mm 2 m/s 741 mmHg 95%
    20:00 -16°C° 0 mm 2 m/s 741 mmHg 96%
    21:00 -17°C° 0 mm 2 m/s 741 mmHg 97%
    22:00 -17°C° 0 mm 2 m/s 741 mmHg 97%
    23:00 -17°C° 0 mm 2 m/s 741 mmHg 98%

    22 Ianuarie, Marţi

    Timp Temperatura Precipitaţii Vânt Presiune Umiditate
    00:00 -18°C° 0 mm 2 m/s 742 mmHg 98%
    01:00 -18°C° 0 mm 2 m/s 742 mmHg 98%
    02:00 -18°C° 0 mm 2 m/s 742 mmHg 98%
    03:00 -18°C° 0 mm 2 m/s 742 mmHg 98%
    04:00 -18°C° 0 mm 2 m/s 742 mmHg 98%
    05:00 -19°C° 0 mm 2 m/s 742 mmHg 98%
    06:00 -19°C° 0 mm 2 m/s 743 mmHg 98%
    07:00 -19°C° 0 mm 2 m/s 743 mmHg 98%
    08:00 -19°C° 0 mm 2 m/s 743 mmHg 98%
    09:00 -19°C° 0 mm 2 m/s 743 mmHg 97%
    10:00 -18°C° 0 mm 2 m/s 744 mmHg 95%
    11:00 -18°C° 0 mm 3 m/s 744 mmHg 94%
    12:00 -16°C° 0 mm 2 m/s 744 mmHg 94%
    13:00 -16°C° 0 mm 2 m/s 744 mmHg 94%
    14:00 -16°C° 0 mm 2 m/s 744 mmHg 94%
    15:00 -17°C° 0 mm 2 m/s 744 mmHg 95%
    16:00 -18°C° 0 mm 2 m/s 745 mmHg 97%
    17:00 -20°C° 0 mm 2 m/s 745 mmHg 98%
    18:00 -20°C° 0 mm 2 m/s 745 mmHg 98%
    19:00 -20°C° 0 mm 2 m/s 745 mmHg 99%
    20:00 -21°C° 0 mm 2 m/s 745 mmHg 99%
    21:00 -21°C° 0 mm 2 m/s 745 mmHg 99%
    22:00 -21°C° 0 mm 2 m/s 745 mmHg 99%
    23:00 -21°C° 0 mm 2 m/s 745 mmHg 99%

    23 Ianuarie, Miercuri

    Timp Temperatura Precipitaţii Vânt Presiune Umiditate
    00:00 -21°C° 0 mm 2 m/s 745 mmHg 99%
    01:00 -21°C° 0 mm 2 m/s 745 mmHg 98%
    02:00 -21°C° 0 mm 2 m/s 745 mmHg 98%
    03:00 -21°C° 0 mm 2 m/s 745 mmHg 98%
    04:00 -20°C° 0 mm 2 m/s 745 mmHg 98%
    05:00 -20°C° 0 mm 2 m/s 745 mmHg 98%
    06:00 -19°C° 0 mm 2 m/s 745 mmHg 98%
    07:00 -18°C° 0 mm 2 m/s 745 mmHg 98%
    08:00 -17°C° 0 mm 2 m/s 745 mmHg 97%
    09:00 -16°C° 0 mm 2 m/s 745 mmHg 96%
    10:00 -14°C° 0 mm 2 m/s 745 mmHg 95%
    11:00 -14°C° 0 mm 3 m/s 745 mmHg 94%
    12:00 -14°C° 0 mm 3 m/s 745 mmHg 94%
    13:00 -14°C° 0 mm 3 m/s 745 mmHg 94%
    14:00 -13°C° 0 mm 3 m/s 744 mmHg 94%
    15:00 -14°C° 0 mm 3 m/s 744 mmHg 95%
    16:00 -15°C° 0 mm 3 m/s 744 mmHg 96%
    17:00 -16°C° 0 mm 3 m/s 744 mmHg 96%
    18:00 -16°C° 0 mm 3 m/s 744 mmHg 97%
    19:00 -17°C° 0 mm 3 m/s 745 mmHg 97%
    20:00 -17°C° 0 mm 3 m/s 745 mmHg 97%
    21:00 -17°C° 0 mm 2 m/s 745 mmHg 97%
    22:00 -18°C° 0 mm 2 m/s 745 mmHg 97%
    23:00 -19°C° 0 mm 2 m/s 745 mmHg 97%
    Arată mai mult